Regional Weather Roundup
Issued by NWS

Home | Current Version | Previous Version | Text Only | Print | Product List | Glossary On
Versions: 1 2 3 4 5 6 7 8 9 10 11 12 13 14 15 16 17 18 19 20 21 22 23 24 25 26 27 28 29 30 31 32 33 34 35 36 37 38 39 40 41 42 43 44 45 46 47 48 49 50
000
ASUS44 KFWD 220215
RWRTX
NORTH TEXAS HOURLY WEATHER ROUNDUP
NATIONAL WEATHER SERVICE FORT WORTH TX
800 PM CST TUE FEB 21 2017

NOTE: "FAIR" INDICATES FEW OR NO CLOUDS BELOW 12,000 FEET WITH NO
SIGNIFICANT WEATHER AND/OR OBSTRUCTIONS TO VISIBILITY.

TXZ118-119-220300-
DALLAS/FORT WORTH METROPLEX

CITY           SKY/WX    TMP DP  RH WIND       PRES   REMARKS
DFW AIRPORT    PTCLDY    68  43  40 NW9       29.92R
DALLAS LOVE    CLEAR     67  43  41 CALM      29.93R
FTW MEACHAM    CLEAR     63  36  36 NW7       29.94R
DAL-EXECUTIVE  CLEAR     63  45  51 W6        29.93R
FTW-ALLIANCE   CLEAR     61  38  42 W7        29.94R
FTW-NAS-JRB    CLEAR     62  39  42 NW6       29.95R
FTW-SPINKS     CLEAR     61  38  42 NW5       29.96R
ARLINGTON      CLEAR     62  41  46 W3        29.94R
GRAND PRAIRIE  CLEAR     68  38  33 CALM      29.95R
ADDISON        CLEAR     66  45  45 NW5       29.94R
MESQUITE       CLEAR     64  45  48 CALM      29.93R
LANCASTER      CLEAR     59  47  63 W3        29.94R
$$

TXZ091>094-102>105-117-120-121-131>134-220300-
NORTH CENTRAL TEXAS

CITY           SKY/WX    TMP DP  RH WIND       PRES   REMARKS
SHRMAN/DENISON CLEAR     61  43  52 N3        29.94S
GAINESVILLE    CLEAR     58  38  47 NW8       29.96S
BOWIE          CLEAR     58  40  52 W5        29.96S
BRIDGEPORT     CLEAR     60  41  50 CALM      29.98R
DECATUR        CLEAR     63  36  36 NW6       29.96R
DENTON         CLEAR     59  43  55 W5        29.94R
MCKINNEY       CLEAR     61  47  59 NW7       29.93R
BONHAM         CLEAR     59  48  67 NW3       29.93R
GREENVILLE     CLEAR     59  50  72 CALM      29.93R
ROCKWALL       CLEAR     64  47  54 CALM      29.93R
TERRELL        CLEAR     62  47  57 CALM      29.92S
WAXAHACHIE     CLEAR     61  45  56 NW5       29.95R
CLEBURNE       CLEAR     61  39  44 NW6       29.97R
GRANBURY       CLEAR     59  40  48 W6        29.98R
$$

TXZ083>090-098>101-113>116-127>130-139>142-154-155-220300-
WESTERN NORTH TEXAS

CITY           SKY/WX    TMP DP  RH WIND       PRES   REMARKS
WICHITA FALLS  CLEAR     64  38  38 W6        29.96R
WF-KICKAPOO    CLEAR     58  42  54 CALM      29.98R
VERNON         CLEAR     62  40  44 S6        29.98R
ABILENE        CLEAR     58  34  40 S7        30.01R
ABILENE-DYESS  CLEAR     54  43  66 SW3       29.99R
GRAHAM         CLEAR     57  39  51 CALM      29.97S
BRECKENRIDGE   CLEAR     60  37  42 CALM      29.98S
CISCO          CLEAR     66  34  30 CALM      30.00R
RANGER         CLEAR     52  36  54 W5        30.00R
MINERAL WELLS  CLEAR     61  36  39 CALM      29.95R
STEPHENVILLE   CLEAR     63  33  32 CALM      30.00R
COMANCHE       CLEAR     67  36  31 CALM      29.99S
BROWNWOOD      CLEAR     57  41  54 CALM      30.00R
COLEMAN        CLEAR     62  38  40 W5        30.01R
$$

TXZ143>147-156>162-174-175-220300-
CENTRAL TEXAS

CITY           SKY/WX    TMP DP  RH WIND       PRES   REMARKS
WACO           CLEAR     64  40  41 NW7       29.94R
WACO-MCGREGOR  CLEAR     59  47  64 W6        29.95
HILLSBORO      CLEAR     58  49  72 CALM      29.94S
CORSICANA      PTCLDY    61  49  64 N3        29.94R
MEXIA          CLEAR     64  45  50 NW5       29.92S
HEARNE         PTCLDY    58  52  78 CALM      29.95R
CAMERON        CLEAR     63  50  62 CALM      29.94R
TEMPLE         CLEAR     64  45  49 CALM      29.96R
KILLEEN        CLEAR     67  35  29 N6        29.95R
KILLEEN-SKYLRK CLEAR     65  37  35 NW3       29.96R
FORT HOOD      CLEAR     66  37  33 NW8       29.93R
GATESVILLE     CLEAR     61  41  48 CALM      29.98S
HAMILTON       CLEAR     60  38  44 NW8       29.99R
LAMPASAS       CLEAR     65  38  36 NW6       29.97S
$$

TXZ095>097-106>112-122>126-135>138-148>153-164>167-220300-
EAST TEXAS

CITY           SKY/WX    TMP DP  RH WIND       PRES   REMARKS
PARIS          CLEAR     61  48  63 E8        29.92R
SULPHUR SPRNGS CLEAR     62  52  69 CALM      29.94R
MOUNT PLEASANT CLEAR     62  49  62 NW3       29.92S
GILMER         CLEAR     60  51  72 CALM      29.91S
MINEOLA        CLEAR     59  52  77 CALM      29.91S
TYLER          CLEAR     61  52  72 CALM      29.91R
LONGVIEW       CLEAR     61  52  72 NW6       29.89R
MARSHALL       CLEAR     65  54  68 NW7       29.91S
ATHENS         CLEAR     59  48  67 CALM      29.91S
PALESTINE      CLEAR     59  53  79 CALM      29.93S
JACKSONVILLE   CLEAR     64  51  61 NW5       29.94R
HENDERSON      CLEAR     58  53  84 CALM      29.92R
CENTER         CLOUDY    65  62  91 CALM      29.91R
NACOGDOCHES    CLEAR     57  52  82 CALM      29.89S
LUFKIN         CLEAR     60  53  77 CALM      29.90R
$$

SUPPLEMENTAL OBSERVATIONS (CENTRAL)

CITY           SKY/WX    TMP DP  RH WIND       PRES   REMARKS
DENISON DAM      N/A     61  45  55 W3          N/A
CADDO GRASSLND   N/A     57  54  88 S2          N/A
PAT MAYSE LAKE   N/A     57  55  94 SE1         N/A
GREENVILLE       N/A     64  48  55 N2          N/A
CEDAR HILL       N/A     61  43  51 SE1         N/A
ATHENS           N/A     59  48  67 CALM        N/A
LAKE LIMESTONE   N/A     63  45  51 W2          N/A
MCGREGOR         N/A     55  43  62 CALM        N/A
TEMPLE           N/A     66  41  39 NW2         N/A
$$

SUPPLEMENTAL OBSERVATIONS (WEST)

CITY           SKY/WX    TMP DP  RH WIND       PRES   REMARKS
MILLERS CREEK    N/A     61  43  51 S2          N/A
POSSUM KINGDOM   N/A     64  34  32 NW3         N/A
LBJ GRASSLAND    N/A     61  37  41 NW2         N/A
GRANBURY         N/A     61  39  44 W7          N/A
COMANCHE         N/A     66  34  30 NW5         N/A
HAMBY            N/A     57  36  44 SE5         N/A
$$

SUPPLEMENTAL OBSERVATIONS (EAST)

CITY           SKY/WX    TMP DP  RH WIND       PRES   REMARKS
CLARKSVILLE      N/A     61  50  67 N5          N/A
TEXARKANA        N/A     64  57  77 NW3         N/A
LINDEN           N/A     64  55  72 NW5         N/A
CADDO LAKE       N/A    N/A N/A N/A CALM        N/A
GILMER           N/A     57  52  82 CALM        N/A
HENDERSON        N/A     59  52  77 CALM        N/A
N SABINE NF      N/A     61  57  88 MISG        N/A
S SABINE NF      N/A     63  59  88 CALM        N/A
$$

SUPPLEMENTAL OBSERVATIONS ARE A COLLECTION OF AUTOMATED INSTRUMENTS
THAT ARE MAINTAINED BY A VARIETY OF FEDERAL AND STATE AGENCIES.
CERTAIN ELEMENTS...SUCH AS HUMIDITY VALUES AND SUSTAINED WIND
SPEEDS...MAY BE APPROXIMATED.





USA.gov is the U.S. government's official web portal to all federal, state and local government web resources and services.